Flag for United Kingdom Weather past 2 weeks in Chesterfield, England, United Kingdom

Now
51 °F

Cool.


Feels Like: 46 °F
Forecast: N/A
Wind: 12 mph from Southwest

Location: Nottingham Weather Centre

Current Time: Dec 21, 2014 at 7:32:38 PM

Latest Report: Dec 21, 2014 at 6:00 PM


Visibility: 47 mi

Pressure: 30.04 "Hg

Humidity: 83%

Dew point: 46 °F

Location of ChesterfieldLocation

Historic Weather in Chesterfield — Graph

°F

Chesterfield temperature yesterday

Maximum temperature yesterday: 46 °F (at 1:00 PM)
Minimum temperature yesterday: 42 °F (at 1:00 AM)
Average temperature yesterday: 44 °F

Past Weeks' High & Low Weather Summary

 TemperatureHumidityPressure
High56 °F (Dec 18, 2:00 PM)100% (Dec 17, 4:00 AM)30.39 "Hg (Dec 17, 4:00 AM)
Low31 °F (Dec 13, 9:00 AM)61% (Dec 7, 2:00 PM)29.12 "Hg (Dec 12, 5:00 AM)
Average42 °F86%29.86 "Hg
* Reported Dec 6 6:00 PM — Dec 21 6:00 PM, Chesterfield, Weather by CustomWeather, © 2014

Note: Actual official high and low records may vary slightly from our data, if they occured in-between our weather recording intervals... More about our weather records

Advertising

Chesterfield weather history for previous 24 hours

 ConditionsComfort  
Time TempWeatherWind HumidityBarometerVisibility
6:00 PM
Dec 21
51 °FCool.12 mph83%30.04 "Hg47 mi
5:00 PM51 °FCool.13 mph82%30.06 "Hg47 mi
4:00 PM49 °FCool.15 mph82%30.09 "Hg47 mi
3:00 PM51 °FCool.14 mph78%30.11 "Hg47 mi
2:00 PM50 °FCool.16 mph78%30.12 "Hg47 mi
1:00 PM49 °FCool.16 mph79%30.14 "Hg47 mi
12:00 PM48 °FCool.15 mph81%30.17 "Hg47 mi
11:00 AM46 °FCool.17 mph84%30.19 "Hg47 mi
10:00 AM46 °FCool.14 mph84%30.21 "Hg47 mi
9:00 AM44 °FQuite cool.15 mph86%30.22 "Hg47 mi
8:00 AM44 °FQuite cool.12 mph88%30.23 "Hg47 mi
7:00 AM44 °FQuite cool.13 mph90%30.24 "Hg47 mi
6:00 AM43 °FQuite cool.7 mph89%30.27 "Hg47 mi
5:00 AM42 °FQuite cool.8 mph88%30.28 "Hg47 mi
4:00 AM43 °FQuite cool.8 mph87%30.30 "Hg47 mi
3:00 AM43 °FQuite cool.7 mph87%30.32 "Hg47 mi
2:00 AM43 °FQuite cool.6 mph85%30.34 "HgN/A
1:00 AM44 °FQuite cool.5 mph82%30.37 "Hg47 mi
12:00 AM44 °FQuite cool.5 mph82%30.39 "Hg47 mi
11:00 PM
Dec 20
44 °FQuite cool.9 mph83%30.38 "Hg47 mi
10:00 PM44 °FQuite cool.8 mph80%30.38 "Hg47 mi
8:00 PM45 °FQuite cool.12 mph83%30.37 "Hg47 mi
7:00 PM45 °FCool.9 mph80%30.35 "Hg47 mi
Weather by CustomWeather, © 2014

See weather overviewHow to use our weather pages